User: anonymous   Login
Location: Goheenville
(40.9070°N, 79.3720°W)
Time: 07:00:41
(UTC-04:00)
Language:

Cosmos 1727 Rocket - Orbit

View from above orbital plane
View from above orbital plane
View from above satellite
View from above satellite

Ground track
Ground track

The orbit data is extracted from the following two-line orbital elements,

1 16511U 86008B   17291.16229662  .00000091  00000-0  78790-4 0  9995
2 16511  82.9415 128.7356 0023138 300.9616 189.4949 13.75819383593187
Epoch (UTC): 18 October 2017 03:53:42
Eccentricity: 0.0023138
inclination: 82.9415°
perigee height: 962 km
apogee height: 996 km
right ascension of ascending node: 128.7356°
argument of perigee: 300.9616°
revolutions per day: 13.75819383
mean anomaly at epoch: 189.4949°
orbit number at epoch: 59318

The dashed part of the orbit path shows where the satellite is in the earth's shadow,  

DLR